Location: ??? ???????
(30.6840°N, 60.5205°E)
Time: 02:17:22
(UTC+00:00)

Daily predictions for brighter satellites

Satellite Brightness Start Highest point End
(mag) Time Altitude Azimuth Time Altitude Azimuth Time Altitude Azimuth
Cosmos 1943 4.3 00:12:14 27° NNE 00:14:38 40° ENE 00:19:56 10° SE
Lacrosse 4 Rocket 3.7 00:25:27 17° NNE 00:27:20 23° ENE 00:30:51 10° ESE
NOSS 3-2 (C) 4.3 00:25:08 29° NNW 00:29:50 72° ENE 00:38:34 10° SE
CENTAUR R/B 3.4 00:27:06 26° NNW 00:32:29 76° ENE 00:41:23 10° SE
Nadezhda 1 Rocket 4.0 00:34:14 56° WSW 00:34:14 56° WSW 00:39:47 10° S
Delta 2 Rocket 3.8 00:39:33 64° SSW 00:39:35 64° SSW 00:44:12 10° SE
Cosmos 1461 3.6 00:39:24 44° NNE 00:40:28 56° ENE 00:44:48 10° SE
METEOR-M 4.0 00:35:23 10° NNE 00:40:45 89° ESE 00:46:06 10° SSW
ALOS 4.3 00:45:11 15° SSW 00:45:11 15° SSW 00:46:02 10° SSW
ATLAS 2AS CENTAUR R/B 3.2 00:40:22 44° W 00:41:55 49° NW 00:49:34 10° NNE
USA 234 4.2 00:37:20 10° NE 00:43:35 47° SE 00:49:49 10° SSW
BREEZE M DEB (TANK) 4.1 00:23:00 10° SW 00:43:53 89° SE 00:48:29 10° NE
deb Chang Zheng 4 3.6 00:41:13 10° NNE 00:45:35 78° ESE 00:49:54 10° S
ATLAS 2A CENTAUR R/B 4.3 00:45:11 13° SSE 00:45:55 14° SE 00:47:54 10° ESE
Cosmos 489 Rocket 4.4 00:43:43 33° NNW 00:46:43 74° WSW 00:53:02 10° S
H-2A R/B 3.9 00:43:47 10° S 00:45:01 18° SSW 00:45:01 18° SSW
Cosmos 1844 Rocket 3.0 00:44:27 10° S 00:50:01 66° ESE 00:55:38 10° NNE
OAO 3 Rocket 3.4 00:50:45 50° SW 00:51:09 51° SSW 00:55:42 10° SE
COSMOS 2455 4.4 00:48:04 10° S 00:53:30 36° ESE 00:58:57 10° NE
CZ-4B R/B 1.6 00:50:31 10° SSE 00:53:37 59° ENE 00:53:38 59° ENE
NOSS 3-2 (A) 4.4 00:53:42 33° WNW 00:57:14 51° WSW 01:05:32 10° S
Meteor 1-31 Rocket 3.9 01:01:56 28° SW 01:01:56 28° SW 01:03:51 10° SSW
Cosmos 1844 4.0 00:57:46 10° S 01:03:15 68° ESE 01:08:46 10° NNE
Atlas Centaur 2 2.3 01:01:28 32° W 01:04:43 86° S 01:10:09 10° E
Cosmos 1151 Rocket 2.8 01:03:11 18° N 01:06:22 82° W 01:10:38 10° S
Cosmos 1933 3.3 01:05:46 41° NW 01:06:55 57° W 01:10:54 10° S
ERS-2 1.9 01:04:45 10° S 01:08:22 80° WSW 01:10:08 29° NNW
GPS 2-04 Rocket1 3.4 01:08:05 35° NNW 01:08:42 38° N 01:12:19 10° ENE
CRYOSAT 2 4.3 01:04:45 10° S 01:09:35 90° ESE 01:14:28 10° N
Cosmos 1782 3.3 01:06:17 10° N 01:10:17 61° E 01:14:16 10° SSE
Lacrosse 5 3.6 01:13:33 16° NNW 01:13:33 16° NNW 01:15:43 10° N
USA 238 DEB 4.3 01:10:52 26° WNW 01:14:29 41° WSW 01:21:29 10° S
Cosmos 1538 Rocket 4.4 01:12:38 29° WNW 01:14:29 39° W 01:19:19 10° SSW
USA 238 4.3 01:10:55 26° WNW 01:14:35 42° WSW 01:21:36 10° S
SJ-12 3.8 01:10:48 10° N 01:14:47 59° WNW 01:18:45 10° SSW
RESURS DK-1 2.7 01:14:31 26° WSW 01:16:21 41° WNW 01:20:17 10° N
ADEOS 4.1 01:11:57 10° N 01:16:37 34° WNW 01:21:16 10° SW
OAO 3 Copernicus 4.3 01:14:28 25° WSW 01:17:29 89° S 01:22:36 10° ENE
Cosmos 1500 Rocket 3.8 01:13:38 10° S 01:17:54 70° E 01:22:11 10° NNE
ATLAS 5 CENTAUR R/B 3.9 01:18:07 10° SSE 01:21:16 23° ESE 01:24:33 10° ENE
OAO 2 Rocket 3.7 01:19:11 27° WNW 01:21:39 51° N 01:26:39 10° ENE
ASTRO E2 3.1 01:20:32 29° WSW 01:22:12 51° SSW 01:26:03 10° ESE
ATLAS CENTAUR R/B 3.8 01:21:51 10° NNE 01:24:21 16° NE 01:26:54 10° E
Cosmos 1328 Rocket 3.6 01:21:37 10° NNW 01:25:56 54° W 01:30:15 10° S
Cosmos 1898 Rocket 3.8 01:23:09 10° SW 01:28:10 43° WNW 01:33:14 10° N
CZ-2C R/B 3.3 01:26:37 10° SSW 01:29:00 19° SSE 01:31:20 10° ESE
Meteor PRIRODA 3.7 01:27:10 10° N 01:30:49 52° WNW 01:34:25 10° SSW
SEDSat Delta rocket 4.4 01:28:18 10° SW 01:32:45 36° SSE 01:36:45 10° E
Meteor 1-26 Rocket 4.3 01:27:33 10° NNW 01:33:04 53° W 01:38:25 10° S
Okean O Rocket 4.3 01:29:38 10° NE 01:33:09 23° E 01:36:39 10° SSE
H-2A R/B 2.7 01:30:05 10° NNE 01:33:59 89° ESE 01:37:49 10° SSW
Milstar 3 Cent rocket 3.8 01:31:25 16° W 01:37:52 76° S 01:54:23 10° ESE
Cosmos 2181 Rocket 4.2 01:33:29 10° NNW 01:39:18 45° W 01:45:04 10° SSW
Meteor 1-4 Rocket 3.3 01:38:19 17° NW 01:40:12 29° W 01:43:13 10° SSW
H-II Stage 2 2.2 01:39:20 10° SW 01:41:32 31° SSE 01:43:34 10° E
Cosmos 1743 Rocket 3.6 01:37:25 10° SSW 01:41:45 56° W 01:46:08 10° N
Cosmos 2154 Rocket 4.0 01:35:40 10° S 01:41:52 90° WNW 01:48:08 10° N
CZ-4C R/B 3.2 01:40:32 17° WNW 01:42:13 19° NW 01:46:04 10° N
Envisat 3.3 01:38:13 10° NNE 01:43:17 70° ESE 01:48:20 10° S
APEX 4.3 01:38:46 10° SSW 01:44:11 88° WNW 01:50:49 10° NNE
Cosmos 1937 Rocket 3.8 01:40:42 10° SW 01:45:30 40° WNW 01:50:22 10° N
COSMO-SKYMED 1 2.8 01:42:32 10° S 01:46:42 47° W 01:50:54 10° NNW
SJ-7 4.4 01:48:10 10° N 01:52:14 66° WNW 01:56:19 10° SSW
ATLAS 3B R/B 3.2 01:45:41 10° NNW 01:52:42 69° ENE 01:59:59 10° SE
MOS 1 Rocket 3.7 01:48:16 10° SSE 01:52:53 71° ENE 01:57:50 10° N
H-2A R/B 2.4 01:49:52 10° NNE 01:53:42 78° ESE 01:57:30 10° S
deb Centaur AC-2 4.3 01:50:13 11° W 01:55:04 78° S 01:59:30 10° ESE
Cosmos 1943 4.5 01:54:09 10° NW 01:58:18 21° W 02:02:26 10° SSW
Cosmos 2298 Rocket 4.4 01:55:10 10° S 02:00:24 70° ESE 02:05:40 10° NNE
Meteor 1-10 Rocket 4.3 01:54:51 10° N 02:00:27 84° E 02:06:07 10° S
Cosmos 1805 Rocket 3.5 01:56:34 10° S 02:00:57 74° W 02:05:24 10° N
EO 1 Delta rocket 4.1 01:56:13 10° S 02:01:46 68° W 02:06:30 10° NNW
Cosmos 2278 Rocket 3.4 01:59:42 10° S 02:05:05 48° ESE 02:10:30 10° NNE
Lacrosse 4 Rocket 2.7 02:02:19 10° NW 02:05:54 25° WSW 02:09:30 10° SSW
Cosmos 1666 Rocket 4.4 02:03:54 10° S 02:08:06 54° E 02:12:19 10° NNE
CZ-4B R/B 4.5 02:06:12 10° NNW 02:09:11 18° WNW 02:12:06 10° WSW
Cosmos 1689 Rocket 3.5 02:08:16 10° SSW 02:10:26 19° W 02:12:36 10° NW
Cosmos 1862 4.4 02:08:16 10° SW 02:11:38 25° W 02:15:01 10° NNW
